Regional Weather Roundup
Issued by NWS

Home | Current Version | Previous Version | Graphics & Text | Print | Product List | Glossary On
Versions: 1 2 3 4 5 6 7 8 9 10 11 12 13 14 15 16 17 18 19 20 21 22 23 24 25 26 27 28 29 30 31 32 33 34 35 36 37 38 39 40 41 42 43 44 45 46 47 48 49 50
944
ASUS44 KJAN 231503
RWRMS

MISSISSIPPI HOURLY WEATHER ROUNDUP
NATIONAL WEATHER SERVICE JACKSON MS
1000 AM CDT THU OCT 23 2014

NOTE: "FAIR: INDICATES FEW OR NO CLOUDS BELOW 12,000 FEET WITH NO
SIGNIFICANT WEATHER AND/OR OBSTRUCTIONS TO VISIBILITY.

MSZ001>002-007>008-010>013-018>021-025>028-034>036-231600-
NORTHWEST MISSISSIPPI

CITY           SKY/WX    TMP DP  RH WIND       PRES   REMARKS
CLARKSDALE     FAIR      55  48  76 E7        30.22R
CLEVELAND      FAIR      55  49  82 E3        30.20S
GREENWOOD      MOSUNNY   55  47  74 E6        30.20S
GREENVILLE     CLOUDY    55  46  71 E3        30.19S
GRENADA          N/A    N/A N/A N/A MISG        N/A
OLIVE BRANCH   PTSUNNY   50  48  93 CALM      30.22S
OXFORD         FAIR      54  43  66 E3        30.22R
TUNICA         PTSUNNY   54  46  76 CALM      30.22R
$$

MSZ003>006-009-014>017-022>024-029>033-037>039-231600-
NORTHEAST MISSISSIPPI

CITY           SKY/WX    TMP DP  RH WIND       PRES   REMARKS
COLUMBUS AFB   SUNNY     53  45  73 NE1       30.19F
CORINTH        FAIR      52  45  76 E7        30.21S
GOLDN TRIANGLE MOSUNNY   54  43  66 E5        30.19S
STARKVILLE     FAIR      54  45  71 NE8       30.19S
TUPELO         MOSUNNY   52  44  74 E3        30.20S
$$

MSZ040-058-231600-
CENTRAL MISSISSIPPI

CITY           SKY/WX    TMP DP  RH WIND       PRES   REMARKS
JACKSON INTL   PTSUNNY   58  46  64 NE6       30.18S
JACKSON HAWKNS PTSUNNY   59  45  59 E7        30.18S
MERIDIAN KEY   SUNNY     57  44  62 NE7       30.17S
MERIDIAN NAS   MOSUNNY   56  44  64 E7        30.17F
RAYMOND        FAIR      55  50  82 E3        30.18R
VICKSBURG        N/A    N/A N/A N/A MISG      30.18S
$$

MSZ059>079-231600-
SOUTH MISSISSIPPI

CITY           SKY/WX    TMP DP  RH WIND       PRES   REMARKS
BROOKHAVEN     FAIR      55  46  71 E5        30.17F
COLUMBIA         N/A    N/A N/A N/A MISG        N/A
HATTIESBURG    SUNNY     59  46  62 E3        30.17R
MCCOMB         MOSUNNY   60  44  55 NE6       30.15S
NATCHEZ        CLOUDY    54  48  82 CALM      30.17S
PINE BELT      SUNNY     59  45  58 E3        30.18R
$$

MSZ080>082-231600-
COASTAL MISSISSIPPI

CITY           SKY/WX    TMP DP  RH WIND       PRES   REMARKS
BAY ST LOUIS   SUNNY     63  43  48 E6        30.13R
BILOXI         SUNNY     62  47  56 NE7       30.12S
PASCAGOULA     SUNNY     62  48  60 N7        30.13R
GULFPORT       SUNNY     63  46  54 NE9       30.12R
$$



USA.gov is the U.S. government's official web portal to all federal, state and local government web resources and services.